WetterOnline ( http://www.wetteronline.de )

Wetter aktuell Friesoythe

Aktuelles Wetter: Friesoythe-Altenoythe (6m)

6-stündlich | Neueste Meldungen
Ortszeit Temperatur Wetter
Mo, 22.01. 19:00 6.0° C bedeckt
Mo, 22.01. 13:00 2.9° C Sprühregen
Mo, 22.01. 7:00 0.8° C Sprühregen
Mo, 22.01. 1:00 1.8° C bewölkt
So, 21.01. 19:00 1.7° C bewölkt
So, 21.01. 13:00 0.9° C bedeckt
So, 21.01. 7:00 0.2° C bedeckt
So, 21.01. 1:00 1.0° C leichter Regen
Ortszeit Temperatur Wetter
Mo, 22.01. 19:00 6.0° C bedeckt
Mo, 22.01. 18:50 6.0° C bedeckt
Mo, 22.01. 18:40 6.0° C bedeckt
Mo, 22.01. 18:30 6.1° C bedeckt
Mo, 22.01. 18:20 6.1° C bedeckt
Mo, 22.01. 18:10 6.0° C bedeckt
Mo, 22.01. 18:00 6.0° C bewölkt
Mo, 22.01. 17:30 6.0° C bedeckt
Mo, 22.01. 17:00 5.7° C bedeckt
Mo, 22.01. 16:30 5.0° C bedeckt
Mo, 22.01. 16:00 4.7° C bedeckt
Ortszeit Relative Feuchte Sichtweite
Mo, 22.01. 19:00 94% 10 km
Mo, 22.01. 13:00 99% 4.2 km
Mo, 22.01. 7:00 98% 2.6 km
Mo, 22.01. 1:00 95% 4.1 km
So, 21.01. 19:00 96% 8 km
So, 21.01. 13:00 99% 2.5 km
So, 21.01. 7:00 100% 1.7 km
So, 21.01. 1:00 99% 2.8 km
Ortszeit Relative Feuchte Sichtweite
Mo, 22.01. 19:00 94% 10 km
Mo, 22.01. 18:50 94% -
Mo, 22.01. 18:40 94% -
Mo, 22.01. 18:30 94% 11 km
Mo, 22.01. 18:20 94% -
Mo, 22.01. 18:10 94% -
Mo, 22.01. 18:00 94% 13 km
Mo, 22.01. 17:30 95% 11 km
Mo, 22.01. 17:00 96% 7 km
Mo, 22.01. 16:30 99% 4.5 km
Mo, 22.01. 16:00 99% 4.8 km
Ortszeit Niederschlagsmenge Niederschlagsart
Mo, 22.01. 19:00 0.7 l/m2 in 12 Std. Regen
Mo, 22.01. 13:00 0.1 l/m2 in 6 Std. Schnee, Regen
Mo, 22.01. 7:00 0.6 l/m2 in 12 Std. Schnee, Regen
Mo, 22.01. 1:00 0.1 l/m2 in 6 Std. Regen
So, 21.01. 19:00 0.0 l/m2 in 12 Std. -
So, 21.01. 13:00 0.0 l/m2 in 6 Std. -
So, 21.01. 7:00 2 l/m2 in 12 Std. Schnee, Regen
So, 21.01. 1:00 0.1 l/m2 in 6 Std. Regen
Ortszeit Niederschlagsmenge Niederschlagsart
Mo, 22.01. 19:00 0.2 l/m2 in 1 Std. Regen
Mo, 22.01. 18:50 keine Meldung -
Mo, 22.01. 18:40 keine Meldung -
Mo, 22.01. 18:30 0.1 l/m2 in 1 Std. -
Mo, 22.01. 18:20 keine Meldung -
Mo, 22.01. 18:10 keine Meldung -
Mo, 22.01. 18:00 0.1 l/m2 in 1 Std. -
Mo, 22.01. 17:30 0.1 l/m2 in 1 Std. -
Mo, 22.01. 17:00 0.1 l/m2 in 1 Std. Sprühregen
Mo, 22.01. 16:30 0.1 l/m2 in 1 Std. Schnee
Mo, 22.01. 16:00 0.1 l/m2 in 1 Std. Regen
Ortszeit Stärke Spitze Richtung
km/h Bft. km/h Grad Sektor
Mo, 22.01. 19:00 15 3 26 - -
Mo, 22.01. 13:00 4 1 29 - -
Mo, 22.01. 7:00 19 3 35 - -
Mo, 22.01. 1:00 13 3 22 - -
So, 21.01. 19:00 11 2 14 - -
So, 21.01. 13:00 9 2 13 - -
So, 21.01. 7:00 4 1 25 - -
So, 21.01. 1:00 4 1 11 - -
Ortszeit Stärke Spitze Richtung
km/h Bft. km/h Grad Sektor
Mo, 22.01. 19:00 15 3 26 - -
Mo, 22.01. 18:50 15 3 - - -
Mo, 22.01. 18:40 17 3 - - -
Mo, 22.01. 18:30 20 4 26 - -
Mo, 22.01. 18:20 20 4 - - -
Mo, 22.01. 18:10 18 3 - - -
Mo, 22.01. 18:00 17 3 24 - -
Mo, 22.01. 17:30 14 3 18 - -
Mo, 22.01. 17:00 13 3 19 - -
Mo, 22.01. 16:30 7 2 11 - -
Mo, 22.01. 16:00 9 2 11 - -
Ortszeit Untergrenze Bedeckung Gattung
total tief tief mittel hoch
Mo, 22.01. 19:00 240 m 8/8 8/8 - - -
Mo, 22.01. 13:00 60 m 7/8 7/8 - - -
Mo, 22.01. 7:00 120 m 8/8 8/8 - - -
Mo, 22.01. 1:00 1500 m 7/8 7/8 - - -
So, 21.01. 19:00 1170 m 7/8 7/8 - - -
So, 21.01. 13:00 30 m 8/8 8/8 - - -
So, 21.01. 7:00 210 m 8/8 8/8 - - -
So, 21.01. 1:00 960 m 4/8 4/8 - - -
Ortszeit Bedeckungsgrad in Achtel und Wolkenuntergrenze
Mo, 22.01. 19:00 8(240m)
Mo, 22.01. 18:50 8(240m)
Mo, 22.01. 18:40 7(240m) 8(870m)
Mo, 22.01. 18:30 6(270m) 7(870m) 8(1020m)
Mo, 22.01. 18:20 6(270m) 7(870m) 8(1020m)
Mo, 22.01. 18:10 7(270m) 7(810m) 8(1020m)
Mo, 22.01. 18:00 7(270m) 7(780m) 7(1020m)
Mo, 22.01. 17:30 7(240m) 8(420m)
Mo, 22.01. 17:00 7(240m) 8(390m) 8(1080m)
Mo, 22.01. 16:30 5(240m) 8(390m) 8(630m)
Mo, 22.01. 16:00 7(120m) 8(270m) 8(450m)
Ortszeit Luftdruck NN (hPa) Tendenz (hPa in 3 Std.)
Mo, 22.01. 19:00 1010 + 3,4
Mo, 22.01. 13:00 1005 + 0,2
Mo, 22.01. 7:00 1005 - 2,2
Mo, 22.01. 1:00 1011 - 2,2
So, 21.01. 19:00 1016 - 0,5
So, 21.01. 13:00 1015 + 2,0
So, 21.01. 7:00 1009 + 2,7
So, 21.01. 1:00 1004 + 1,8
Ortszeit Luftdruck NN (hPa) Tendenz (hPa in 3 Std.)
Mo, 22.01. 19:00 1010 + 3,4
Mo, 22.01. 18:50 1010 keine Meldung
Mo, 22.01. 18:40 1010 keine Meldung
Mo, 22.01. 18:30 1010 + 3,2
Mo, 22.01. 18:20 1010 keine Meldung
Mo, 22.01. 18:10 1009 keine Meldung
Mo, 22.01. 18:00 1009 + 3,1
Mo, 22.01. 17:30 1008 + 2,8
Mo, 22.01. 17:00 1008 + 2,2
Mo, 22.01. 16:30 1007 + 1,9
Mo, 22.01. 16:00 1007 + 1,6
Ortszeit Schneehöhe (cm)
Mo, 22.01. 19:00 0
Mo, 22.01. 13:00 0
Mo, 22.01. 7:00 0
Mo, 22.01. 1:00 0
So, 21.01. 19:00 0
So, 21.01. 13:00 0
So, 21.01. 7:00 0
So, 21.01. 1:00 0
Ortszeit Schneehöhe (cm)
Mo, 22.01. 19:00 0
Mo, 22.01. 18:50 0
Mo, 22.01. 18:40 0
Mo, 22.01. 18:30 0
Mo, 22.01. 18:20 0
Mo, 22.01. 18:10 0
Mo, 22.01. 18:00 0
Mo, 22.01. 17:30 0
Mo, 22.01. 17:00 0
Mo, 22.01. 16:30 0
Mo, 22.01. 16:00 0
Link zu dieser Seite / Seite empfehlen

Das Wetter in ...